Regional Weather Roundup
Issued by NWS

Home | Current Version | Previous Version | Graphics & Text | Print | Product List | Glossary On
Versions: 1 2 3 4 5 6 7 8 9 10 11 12 13 14 15 16 17 18 19 20 21 22 23 24 25 26 27 28 29 30 31 32 33 34 35 36 37 38 39 40 41 42 43 44 45 46 47 48 49 50
000
ASUS43 KOAX 300510
RWRNE

WEATHER ROUNDUP FOR NEBRASKA
NATIONAL WEATHER SERVICE OMAHA NE
1200 AM CDT FRI SEP 30 2016

NOTES: SATELLITE DATA IS BEING USED TO AUGMENT CLOUD COVER ABOVE
       12000 FEET.
       "FAIR" INDICATES FEW OR NO CLOUDS BELOW 12,000 FEET WITH NO
       SIGNIFICANT WEATHER AND/OR OBSTRUCTIONS TO VISIBILITY.

  * THESE STATIONS DO NOT REPORT WEATHER SUCH AS RAIN...SNOW OR FOG.

NEZ001>004-019>022-054>056-300600-
NEBRASKA PANHANDLE

CITY           SKY/WX    TMP DP  RH WIND       PRES   REMARKS
SCOTTSBLUFF    CLOUDY    58  42  55 E15       30.24S
ALLIANCE       CLEAR     56  41  57 SE14      30.25S
CHADRON        CLOUDY    64  40  41 S24G35    30.18S
KIMBALL        CLOUDY    58  44  59 SE9       30.26F
SIDNEY         CLOUDY    57  41  55 SE14      30.27F
$$

NEZ057>060-069>072-079>082-300600-
SOUTHWEST NEBRASKA

CITY           SKY/WX    TMP DP  RH WIND       PRES   REMARKS
NORTH PLATTE   CLEAR     47  40  76 SE6       30.31S
IMPERIAL       CLEAR     52  41  66 SE12      30.30S
LEXINGTON      CLEAR     50  43  77 SE6       30.33S
MCCOOK         CLEAR     51  43  74 SE7       30.32R
OGALLALA       CLEAR     56  41  58 SE6       30.29F
$$

NEZ005>010-023>029-035>040-094-300600-
NORTH CENTRAL NEBRASKA

CITY           SKY/WX    TMP DP  RH WIND       PRES   REMARKS
AINSWORTH      CLEAR     50  44  78 S7        30.31S
BROKEN BOW     CLEAR     39  38  96 CALM      30.33S
O`NEILL        CLEAR     51  44  77 SE3       30.35R
ORD            CLEAR     43  40  89 CALM      30.33S
THEDFORD       CLEAR     49  41  73 SE8       30.32S
$$

NEZ041-046>049-061>064-073>077-083>087-300600-
SOUTH CENTRAL NEBRASKA

CITY           SKY/WX    TMP DP  RH WIND       PRES   REMARKS
GRAND ISLAND   CLEAR     51  45  79 SE7       30.35S
AURORA         CLEAR     48  45  89 SE5       30.35S
HASTINGS       CLEAR     54  44  69 SE8       30.35S
HEBRON         CLEAR     47  45  93 CALM      30.34S
HOLDREGE       CLEAR     46  41  80 CALM      30.33S
KEARNEY *      CLEAR     48  41  76 E5        30.34R
YORK           CLEAR     50  46  87 CALM      30.35S
$$

NEZ011>018-030>034-042>045-300600-
NORTHEAST NEBRASKA

CITY           SKY/WX    TMP DP  RH WIND       PRES   REMARKS
NORFOLK        CLEAR     46  43  89 SE5       30.35S
ALBION         CLEAR     44  42  93 CALM      30.35S
BLAIR          CLEAR     54  47  75 NE6       30.34S
FREMONT        CLEAR     49  47  92 CALM      30.35S
TEKAMAH        CLEAR     47  44  90 NW6       30.35S
WAYNE          CLEAR     42  41  97 CALM      30.36S
$$

NEZ050>053-065>068-078-088>093-300600-
SOUTHEAST NEBRASKA

CITY           SKY/WX    TMP DP  RH WIND       PRES   REMARKS
LINCOLN        CLEAR     50  47  89 N6        30.35F
OMAHA EPPLEY   CLEAR     51  45  79 N3        30.34S
BEATRICE       CLEAR     51  47  87 CALM      30.33F
FALLS CITY     CLEAR     54  47  77 NW3       30.31F
NEBRASKA CITY  CLEAR     55  42  60 N3        30.33S
PLATTSMOUTH    CLEAR     56  42  60 NE3       30.33F
$$

NEZ044-045-051>053-067-300600-
OMAHA AREA

CITY           SKY/WX    TMP DP  RH WIND       PRES   REMARKS
OMAHA EPPLEY   CLEAR     51  45  79 N3        30.34S
BLAIR          CLEAR     54  47  75 NE6       30.34S
FREMONT        CLEAR     49  47  92 CALM      30.35S
MILLARD        CLEAR     52  49  90 CALM      30.34S
OFFUTT AFB     CLEAR     48  47  96 NE2       30.32F
PLATTSMOUTH    CLEAR     56  42  60 NE3       30.33F
WAHOO          FAIR      50  47  87 CALM      30.35S
$$




USA.gov is the U.S. government's official web portal to all federal, state and local government web resources and services.